Temperature
13 13 13 13 13 13 12 12 12 12 12 11 11 11 11 11 11 11 11 11 11 11 11 11 10 10 10 10 10 10 10 10 10 10 10 10 10 10 10 10 10 11 11
13 13 13 13 13 12 12 12 12 11 11 11 11 11 11 11 11 10 10 10 10 10 10 10 10 10 10 10 10 10 10 10 10 10 10 10 10 10 10 10 10 10 10
13 13 12 12 12 12 12 12 11 11 11 11 11 10 10 10 10 10 10 10 10 10 10 10 10 10 10 10 10 10 9 9 9 9 9 10 10 10 10 10 10 10 10
12 12 12 12 12 11 11 11 11 11 11 10 10 10 10 10 10 10 10 10 9 9 9 9 9 9 9 9 9 9 9 9 9 9 9 9 9 10 10 10 10 10 10
12 12 12 12 11 11 11 11 11 11 10 10 10 10 10 10 10 10 9 9 9 9 9 9 9 9 9 9 9 9 9 9 9 9 9 9 9 9 9 9 10 10 10
12 12 12 11 11 11 11 11 10 10 10 10 10 10 9 9 9 9 9 9 9 9 9 9 9 9 9 9 9 9 9 9 9 9 9 9 9 9 9 9 9 9 9
11 11 11 11 11 10 10 10 10 10 10 10 9 9 9 9 9 9 9 9 9 9 8 9 9 9 9 9 9 9 9 9 9 9 9 9 9 9 9 9 9 9 9
11 11 10 10 10 10 10 10 9 9 9 9 9 9 9 9 9 9 9 9 8 8 8 8 8 8 8 8 8 9 9 9 9 9 9 9 9 9 9 9 9 9 9
11 10 10 10 10 10 9 9 9 9 9 9 8 8 8 8 8 8 8 8 8 8 8 8 8 8 8 8 8 8 8 9 9 8 8 8 8 8 8 8 8 8 8
10 10 10 9 9 9 9 9 9 9 8 8 8 8 8 8 8 8 8 8 8 8 8 8 8 8 8 8 8 8 8 8 8 8 8 8 8 8 8 8 8 8 8
10 9 9 9 9 9 9 8 8 8 8 8 8 8 7 7 8 7 7 7 7 7 7 8 8 8 8 8 8 8 8 8 8 8 8 8 8 8 8 8 8 8 8
9 9 9 9 8 8 8 8 8 8 7 7 7 7 7 7 7 7 7 7 7 7 7 7 7 7 7 7 7 7 8 8 7 7 7 7 8 8 8 8 8 7 8
9 9 8 8 8 8 8 7 7 7 7 7 7 7 7 7 7 7 7 7 7 7 7 7 7 7 7 7 7 7 7 7 7 7 7 7 7 7 7 7 7 7 7
8 8 8 8 7 7 7 7 7 7 6 6 6 6 6 6 6 6 6 6 6 6 6 6 6 7 7 7 7 7 7 7 7 7 7 7 7 7 7 7 7 7 7
8 8 7 7 7 7 7 7 6 6 6 6 6 6 6 6 6 6 6 6 6 6 6 6 6 6 6 6 6 6 6 6 6 6 6 6 6 6 6 6 6 6 6
8 7 7 7 6 6 6 6 6 6 6 6 6 6 6 6 5 5 5 5 5 5 5 5 5 5 5 5 5 5 5 6 6 6 6 6 6 6 6 6 6 6 6
7 7 7 6 6 6 6 6 6 6 6 6 5 5 5 5 5 5 5 5 5 5 5 5 5 5 5 5 5 5 5 5 5 5 5 5 5 5 5 5 5 5 5
7 7 6 6 6 6 6 5 5 5 5 5 5 5 5 5 5 5 5 5 5 5 4 4 4 4 4 4 4 4 4 4 5 5 5 5 5 5 5 5 5 5 5
6 6 6 6 6 5 5 5 5 5 5 5 5 4 4 4 4 4 4 4 4 4 4 4 4 4 4 4 4 4 4 4 4 4 4 4 4 4 4 4 4 4 4
6 6 6 6 5 5 5 5 5 4 4 4 4 4 4 4 4 4 4 4 4 4 4 4 4 3 3 3 3 3 3 3 3 3 3 4 4 4 4 4 4 4 4
6 6 6 5 5 5 5 5 5 4 4 4 4 4 4 4 4 4 3 3 3 3 3 3 3 3 3 3 3 3 3 3 3 3 3 3 3 3 3 3 3 3 3
5 5 5 5 5 5 4 4 4 4 4 4 3 3 3 3 3 3 3 3 3 3 3 3 3 3 3 2 2 2 2 2 2 2 2 2 3 3 3 3 3 3 3
5 5 5 5 4 4 4 4 4 4 4 3 3 3 3 3 3 2 2 2 2 2 2 2 2 2 2 2 2 2 2 2 2 2 2 2 2 2 2 2 2 2 2
4 4 4 4 4 4 4 4 3 3 3 3 3 2 2 2 2 2 2 2 2 2 2 2 2 2 2 2 2 2 2 2 2 2 2 2 2 2 2 2 2 2 2
4 3 3 3 3 3 3 3 3 3 3 3 2 2 2 2 2 2 2 2 2 2 2 2 2 2 2 1 1 1 1 1 1 1 1 1 1 1 1 1 1 1 1
3 3 3 3 3 2 2 2 2 2 2 2 2 2 1 1 1 1 1 1 1 1 1 1 1 1 1 1 1 1 1 1 1 0 0 0 0 0 0 1 0 0 0
Wind_Speed
3 3 3 2 2 2 1 1 1 1 1 1 1 1 1 1 1 2 1 2 2 2 2 1 1 1 1 1 1 1 2 1 1 2 1 0 1 1 1 2 2 1 1
2 2 3 3 2 2 1 1 1 1 1 1 2 1 1 1 1 1 1 2 2 2 2 1 1 1 1 0 0 0 1 1 1 3 2 1 0 1 1 2 1 2 1
3 3 3 2 2 1 1 1 1 1 1 1 1 1 1 1 1 1 1 1 2 2 2 2 1 1 1 1 1 1 1 2 1 2 2 2 1 1 1 2 2 1 2
4 3 2 2 2 2 2 1 1 1 1 0 0 0 1 1 1 1 1 1 2 2 2 2 2 2 1 1 1 1 1 1 1 2 2 2 1 1 0 1 1 2 2
3 2 2 2 2 2 2 2 2 1 1 1 1 1 1 1 1 2 2 2 2 2 2 2 2 3 4 2 2 1 1 1 2 2 2 1 1 1 1 1 1 2 2
4 3 2 2 2 2 2 2 1 1 1 1 1 2 2 2 3 4 4 2 2 2 2 2 2 2 3 4 4 3 2 2 2 2 2 2 2 2 1 1 0 1 2
3 3 3 2 2 2 1 2 1 1 1 1 1 2 2 2 4 4 5 3 3 2 2 2 3 3 3 2 4 5 5 5 4 3 2 3 2 2 2 1 1 1 2
3 3 2 2 2 2 2 2 1 1 1 1 1 1 1 1 3 4 6 3 3 3 2 2 2 2 4 4 3 3 3 4 4 4 3 3 3 3 3 3 2 2 2
3 3 2 2 2 2 1 1 1 1 1 1 0 1 1 1 4 5 5 3 3 3 3 3 2 2 5 6 3 4 4 4 5 6 5 4 4 5 3 1 1 1 1
3 2 2 1 2 2 1 1 0 1 0 0 1 1 1 1 3 5 5 2 2 3 3 3 4 4 5 6 3 3 4 4 3 3 3 4 4 4 4 3 3 2 1
2 2 2 2 1 1 1 1 0 0 1 0 1 1 1 1 3 5 5 3 3 3 3 3 3 6 6 7 5 3 4 4 3 2 2 2 2 1 2 2 3 3 3
2 2 2 2 1 1 1 1 0 0 0 1 1 1 1 1 2 4 5 5 5 3 3 3 4 7 8 8 5 6 6 5 2 2 2 2 2 2 2 2 3 3 4
2 1 2 2 1 1 1 1 1 0 0 1 1 1 1 1 2 5 6 7 8 5 4 6 7 8 7 5 6 7 5 3 2 2 3 3 3 3 2 1 2 3 4
2 2 2 2 2 1 1 1 1 0 0 1 1 2 2 1 1 2 3 4 5 5 5 6 7 6 5 5 6 5 3 3 2 3 3 3 2 2 2 2 2 1 2
2 2 1 1 2 1 1 0 1 1 2 2 2 2 2 2 3 4 3 3 3 4 4 4 3 3 3 3 3 3 3 2 3 3 2 2 2 2 2 1 1 1 2
1 2 2 1 1 1 1 0 1 1 2 3 3 3 2 3 4 4 5 6 6 6 3 3 3 3 3 3 4 3 3 3 3 2 2 2 2 2 2 1 1 2 2
1 1 2 2 2 2 2 2 1 2 2 2 3 2 2 3 4 5 5 5 5 3 2 3 3 3 3 3 3 3 3 3 3 2 2 2 2 2 2 2 2 2 2
1 1 1 2 2 2 2 2 2 2 1 2 3 4 4 4 5 5 4 3 2 2 2 3 3 3 3 3 3 3 3 3 3 3 2 2 2 2 2 2 2 3 3
1 1 1 1 1 1 1 1 1 1 1 1 1 2 4 4 4 4 2 2 2 3 3 3 3 3 3 3 3 3 3 3 3 3 2 2 2 2 3 3 3 5 4
1 2 1 1 2 1 1 1 1 2 2 2 1 1 1 2 2 2 2 3 3 3 3 3 3 3 3 3 3 3 3 3 3 3 3 3 3 3 3 4 3 4 4
1 1 2 2 2 2 2 2 2 2 2 2 2 2 2 2 3 3 3 3 3 3 3 4 3 3 3 3 3 3 3 3 3 3 3 3 3 3 3 3 3 3 3
1 1 1 2 2 2 2 2 2 2 2 2 2 2 3 2 3 3 3 3 3 3 3 3 4 3 4 4 3 3 4 4 3 3 3 3 3 3 3 3 3 3 3
1 1 2 2 2 2 2 2 2 3 2 2 2 2 2 3 3 3 3 3 3 3 3 2 3 3 3 3 3 3 3 4 4 3 3 3 3 3 3 3 4 3 3
1 2 2 2 2 2 2 2 2 2 2 2 2 2 2 3 3 3 3 3 3 3 3 3 3 4 4 3 3 3 3 4 4 4 4 4 4 3 3 3 4 4 4
2 2 2 2 2 2 2 2 2 2 2 2 2 2 2 2 3 3 3 3 3 3 4 4 3 3 4 4 4 4 5 6 6 5 4 3 4 4 3 4 4 3 4
2 2 2 2 2 2 2 2 2 2 2 2 2 2 3 3 3 3 3 3 3 4 4 3 4 5 5 4 5 6 6 7 7 7 4 3 3 3 3 3 4 4 4
Wind_Direction
156 146 135 134 121 113 120 123 136 103 72 45 58 39 37 24 19 49 12 347 346 343 346 14 14 13 8 360 4 6 356 351 304 317 335 40 47 351 5 339 329 257 242
130 131 137 140 136 130 133 126 101 96 63 45 52 35 45 49 43 62 3 353 349 341 342 357 346 355 360 347 356 319 317 319 301 304 311 324 320 287 289 279 309 307 265
113 103 107 113 128 153 139 102 92 86 65 54 67 35 51 58 45 44 33 354 345 340 349 352 329 306 289 275 259 249 258 298 297 292 289 300 303 280 325 300 295 290 285
117 121 117 105 91 82 82 64 67 77 78 35 95 41 43 51 54 29 4 350 351 341 343 347 335 333 312 278 266 264 267 279 279 287 280 289 271 281 304 303 327 324 302
130 125 111 101 85 75 76 69 50 48 35 12 39 65 36 35 30 22 0 349 351 334 337 347 345 5 5 350 328 305 289 285 288 283 276 297 287 315 283 273 303 298 298
130 122 110 110 98 87 81 75 53 36 27 24 42 50 30 12 17 13 355 339 326 311 313 314 311 329 335 340 334 322 312 298 289 282 267 268 267 261 266 291 252 307 288
124 125 120 113 101 90 72 68 47 22 32 16 31 64 58 34 22 9 348 329 306 295 299 310 314 314 329 299 298 302 295 292 280 263 249 256 258 258 237 273 261 252 251
132 125 105 104 107 91 71 61 22 19 59 24 20 47 82 13 8 358 343 322 307 305 295 284 286 306 314 316 291 283 279 282 274 264 243 250 250 249 227 217 242 264 263
132 129 126 124 121 111 88 77 19 28 28 341 29 37 53 17 1 355 345 315 311 313 313 317 319 306 318 321 304 289 286 280 267 265 267 275 281 274 250 211 251 271 269
135 133 130 132 143 150 138 111 16 355 299 299 50 68 69 52 359 359 358 340 327 320 318 328 334 326 319 323 299 280 279 282 293 293 286 281 273 276 268 217 202 222 228
125 139 155 163 162 156 150 145 141 322 313 345 57 59 59 48 8 357 355 352 340 329 325 326 327 331 322 319 309 285 276 285 282 273 264 269 263 249 252 234 208 207 213
127 143 158 161 172 150 148 163 161 182 340 4 20 358 15 27 8 342 342 341 344 330 321 328 326 332 330 322 313 306 303 305 289 289 286 261 254 258 253 235 240 241 236
143 157 168 165 161 166 168 175 168 118 75 335 325 312 317 350 354 342 337 332 335 331 320 316 312 314 319 316 310 310 306 291 276 268 261 256 247 243 242 246 247 268 275
166 177 179 176 169 163 166 151 140 143 302 284 291 294 305 332 350 338 325 318 323 325 322 314 309 305 307 300 306 305 288 277 261 259 262 258 254 253 250 229 221 235 271
184 177 170 153 161 164 147 171 193 184 212 246 254 259 268 278 291 306 310 307 310 306 316 316 324 332 331 325 318 306 292 294 283 283 280 286 286 281 275 262 205 185 233
196 175 166 152 156 164 171 329 352 256 249 255 258 260 281 288 300 306 306 307 309 311 316 305 307 312 309 312 313 310 305 299 286 275 271 274 272 266 274 274 226 205 235
230 198 175 173 182 192 196 197 246 319 307 289 277 278 277 293 303 307 303 308 309 315 301 290 293 292 296 298 298 297 300 303 304 291 271 265 268 270 266 263 253 240 245
204 238 203 182 189 202 208 218 218 229 272 294 298 292 287 287 292 293 300 321 308 286 274 278 286 291 296 297 298 302 305 311 309 300 280 272 265 260 259 256 249 247 249
203 216 202 188 194 204 219 236 240 249 262 279 307 309 304 298 287 280 284 267 269 273 274 277 276 282 289 291 295 298 298 296 298 302 287 271 265 264 261 255 254 257 250
238 230 223 207 207 209 210 223 243 245 251 254 261 280 325 326 298 281 263 266 269 275 276 274 272 273 279 282 287 291 293 293 292 288 285 275 265 262 259 256 257 256 244
269 255 253 240 218 214 219 221 233 241 242 249 256 262 287 273 270 274 275 275 274 272 274 273 272 274 273 275 274 277 279 282 282 282 284 279 272 267 264 256 260 262 260
278 257 244 238 244 230 232 230 230 233 247 261 275 280 280 271 268 271 272 278 278 275 278 272 270 266 263 260 262 264 269 275 278 281 284 282 283 276 269 267 269 270 264
284 270 262 254 244 256 250 235 235 234 239 247 259 273 260 265 270 275 277 281 283 286 284 277 275 279 284 279 272 260 262 270 275 279 285 285 285 283 278 272 269 271 273
269 270 268 264 258 245 239 243 248 245 239 241 245 253 258 268 280 290 294 291 296 297 292 280 271 275 280 281 283 284 288 291 288 284 277 278 282 280 279 274 266 263 265
272 274 274 271 266 267 271 262 256 254 254 255 255 259 269 279 287 293 301 302 302 295 298 296 292 289 290 294 303 306 305 302 301 300 285 270 271 276 275 273 270 267 270
255 263 271 278 279 276 279 274 271 272 268 264 260 261 267 274 280 284 294 296 300 300 298 294 292 296 299 299 295 295 298 300 300 297 290 273 264 272 278 276 277 267 265
Height
1522 1523 1524 1525 1526 1527 1528 1528 1528 1528 1528 1528 1528 1528 1527 1527 1527 1527 1527 1527 1526 1526 1526 1526 1525 1524 1524 1523 1523 1523 1523 1523 1521 1520 1520 1519 1518 1517 1517 1516 1516 1515 1515
1521 1522 1523 1524 1525 1525 1526 1527 1527 1527 1527 1527 1527 1526 1526 1526 1526 1526 1525 1525 1525 1525 1524 1524 1523 1523 1523 1522 1522 1522 1522 1521 1520 1519 1518 1517 1517 1516 1515 1515 1514 1514 1514
1519 1520 1521 1522 1523 1523 1524 1525 1525 1525 1525 1525 1525 1525 1525 1524 1524 1524 1524 1524 1523 1523 1523 1522 1522 1522 1521 1521 1521 1520 1520 1519 1519 1517 1516 1516 1515 1515 1514 1514 1513 1513 1512
1517 1518 1519 1520 1521 1521 1522 1523 1523 1524 1524 1524 1524 1524 1524 1523 1523 1523 1522 1522 1522 1521 1521 1521 1521 1520 1520 1520 1519 1519 1518 1517 1516 1515 1515 1514 1513 1513 1513 1512 1511 1511 1511
1515 1516 1517 1518 1519 1519 1520 1521 1521 1521 1522 1522 1522 1522 1522 1522 1521 1521 1521 1520 1520 1520 1519 1519 1519 1519 1519 1518 1517 1517 1516 1515 1514 1513 1513 1512 1512 1511 1510 1510 1509 1509 1509
1513 1514 1515 1516 1517 1518 1518 1518 1519 1519 1519 1520 1520 1520 1520 1520 1520 1520 1519 1518 1518 1518 1517 1517 1517 1517 1516 1516 1515 1515 1515 1514 1512 1511 1511 1510 1510 1510 1509 1508 1508 1507 1507
1511 1512 1513 1514 1515 1516 1516 1517 1517 1517 1517 1518 1518 1518 1518 1518 1518 1517 1517 1517 1516 1516 1515 1515 1514 1514 1514 1513 1513 1512 1512 1511 1511 1510 1509 1508 1508 1508 1507 1507 1506 1506 1505
1509 1511 1511 1512 1513 1514 1514 1514 1515 1515 1515 1515 1515 1516 1516 1516 1516 1515 1515 1514 1514 1513 1513 1513 1512 1512 1511 1511 1510 1509 1508 1507 1507 1507 1506 1506 1506 1506 1505 1505 1504 1504 1503
1507 1508 1509 1510 1511 1511 1512 1512 1513 1513 1513 1513 1513 1514 1514 1513 1513 1513 1512 1512 1511 1511 1510 1510 1510 1509 1508 1508 1507 1506 1505 1504 1504 1504 1504 1503 1503 1503 1502 1502 1502 1501 1500
1505 1506 1507 1508 1508 1509 1510 1510 1511 1511 1511 1511 1511 1511 1511 1511 1511 1510 1510 1509 1508 1508 1508 1507 1507 1506 1505 1505 1504 1503 1502 1501 1501 1501 1500 1500 1500 1499 1499 1499 1498 1498 1498
1503 1504 1505 1506 1506 1507 1508 1508 1509 1509 1509 1509 1509 1509 1509 1508 1508 1508 1507 1507 1506 1505 1504 1504 1503 1503 1502 1501 1500 1499 1499 1499 1498 1498 1497 1496 1496 1496 1496 1495 1495 1495 1495
1501 1502 1503 1503 1504 1505 1506 1506 1506 1507 1507 1507 1506 1506 1506 1506 1505 1505 1505 1504 1503 1502 1501 1500 1500 1499 1499 1498 1497 1496 1496 1496 1495 1494 1494 1493 1493 1492 1492 1492 1492 1492 1492
1499 1500 1500 1501 1502 1503 1503 1504 1504 1504 1504 1504 1504 1503 1503 1503 1502 1502 1502 1501 1500 1500 1499 1498 1497 1496 1495 1494 1493 1493 1492 1492 1491 1490 1490 1489 1489 1489 1489 1489 1488 1489 1489
1497 1497 1498 1499 1499 1500 1501 1501 1501 1501 1501 1501 1501 1500 1500 1499 1499 1499 1498 1497 1497 1496 1495 1494 1494 1493 1492 1491 1490 1489 1488 1488 1488 1487 1486 1486 1486 1486 1485 1485 1485 1485 1485
1495 1495 1496 1496 1497 1497 1498 1498 1498 1498 1499 1498 1498 1498 1497 1496 1496 1496 1495 1494 1493 1493 1492 1491 1489 1488 1488 1487 1486 1485 1485 1484 1484 1483 1483 1483 1482 1482 1482 1482 1482 1481 1481
1492 1492 1493 1493 1494 1494 1495 1495 1495 1496 1496 1496 1496 1496 1495 1494 1494 1493 1492 1491 1490 1490 1489 1487 1486 1485 1484 1484 1483 1482 1481 1481 1480 1480 1480 1479 1479 1479 1478 1479 1479 1478 1478
1489 1490 1490 1490 1491 1491 1492 1492 1491 1492 1493 1493 1493 1492 1492 1491 1490 1489 1489 1488 1487 1486 1485 1484 1483 1482 1481 1480 1480 1479 1478 1478 1477 1477 1476 1476 1475 1475 1475 1475 1475 1475 1474
1487 1488 1488 1488 1488 1489 1489 1489 1489 1488 1488 1488 1489 1489 1488 1488 1487 1486 1485 1484 1483 1482 1481 1481 1480 1479 1478 1477 1476 1475 1475 1474 1473 1473 1472 1472 1472 1471 1471 1471 1471 1471 1470
1484 1485 1485 1486 1486 1486 1486 1486 1486 1486 1486 1485 1485 1484 1484 1483 1483 1482 1481 1481 1479 1478 1478 1477 1477 1476 1475 1474 1473 1472 1471 1470 1469 1469 1468 1468 1468 1467 1467 1466 1466 1467 1467
1482 1482 1483 1483 1483 1483 1483 1483 1483 1483 1483 1482 1481 1481 1480 1479 1478 1477 1477 1476 1476 1475 1474 1473 1473 1472 1471 1470 1469 1468 1467 1466 1465 1464 1464 1464 1463 1463 1463 1462 1462 1462 1462
1479 1479 1480 1480 1480 1480 1480 1480 1480 1480 1479 1479 1478 1477 1477 1476 1474 1473 1472 1472 1471 1471 1470 1469 1468 1467 1467 1466 1465 1464 1463 1462 1461 1460 1460 1459 1459 1458 1458 1458 1457 1457 1457
1476 1476 1476 1477 1477 1477 1477 1477 1477 1476 1476 1475 1474 1474 1473 1472 1471 1470 1469 1468 1467 1466 1466 1465 1464 1463 1462 1461 1460 1459 1458 1457 1456 1455 1455 1454 1454 1454 1453 1453 1453 1453 1453
1473 1473 1473 1473 1474 1474 1473 1473 1473 1472 1472 1471 1470 1469 1469 1468 1467 1465 1464 1463 1462 1462 1461 1460 1459 1458 1457 1456 1455 1454 1453 1452 1452 1451 1450 1450 1449 1449 1449 1448 1449 1448 1448
1471 1470 1470 1470 1470 1470 1469 1469 1469 1468 1468 1467 1466 1465 1464 1463 1462 1461 1460 1459 1458 1457 1456 1455 1454 1453 1452 1451 1450 1449 1448 1448 1447 1447 1446 1445 1444 1444 1444 1444 1444 1444 1444
1467 1467 1467 1467 1466 1466 1466 1465 1465 1464 1463 1463 1462 1461 1460 1459 1458 1457 1456 1454 1453 1452 1451 1450 1449 1448 1447 1446 1445 1444 1443 1442 1442 1441 1441 1440 1439 1439 1439 1439 1439 1439 1439
1463 1463 1463 1463 1463 1462 1462 1461 1461 1460 1459 1459 1458 1457 1456 1455 1454 1453 1451 1450 1449 1448 1446 1445 1444 1443 1442 1441 1440 1439 1438 1437 1437 1436 1436 1435 1434 1434 1434 1434 1434 1435 1435